{"data":{"norad_id":56346,"intl_designator":"2023-058AF","name":"STARLINK-5837","alt_names":[],"object_type":"PAYLOAD","status":"ACTIVE","operator":null,"country":"US","launch_date":"2023-04-27","launch_site_code":"AFWTR","launch_vehicle":null,"mission":null,"orbit_class":"UNKNOWN","rcs_meters":null,"size_class":null,"mass_kg":null,"dimensions":null,"purposes":["comms"],"wikipedia_slug":null,"has_3d_model":false,"image_url":null,"decayed_at":null,"tle_current":{"epoch":"2026-05-24T22:57:44.025120Z","epoch_age_seconds":82736,"freshness":"FRESH","line1":"1 56346U 23058AF  26144.95675955 -.00005654  00000+0 -38790-3 0  9991","line2":"2 56346  97.4513 144.9770 0002001  89.6621 270.4836 15.05666412169600","mean_motion":15.05666412,"eccentricity":0.0002001,"inclination_deg":97.4513,"raan_deg":144.977,"arg_perigee_deg":89.6621,"mean_anomaly_deg":270.4836,"bstar":-0.0003879,"rev_number":16960,"period_min":95.63871442727,"perigee_km":548.07459999126,"apogee_km":550.84702463575,"semimajor_km":6927.5978123135,"source":"CELESTRAK","updated_at":"2026-05-25T13:38:18.005982Z"}}}